Temperature
20 20 19 20 19 19 19 20 20 20 20 20 20 19 18 17 17 16 15 15 14 14 14 13 13 13 13 13 13 13 13 12 12 12 11 11 11 11 11 10 10 10 10 10
19 19 19 19 19 19 19 19 19 19 19 20 19 18 18 17 16 16 15 14 14 14 13 13 13 13 13 13 13 12 12 12 12 11 11 11 11 10 10 10 10 10 10 10
19 18 18 18 19 19 19 19 19 19 20 19 19 18 17 17 16 16 15 14 14 13 13 13 13 13 13 12 12 12 12 12 11 11 11 11 11 10 10 10 10 9 9 9
18 18 17 20 19 19 19 19 19 19 19 18 18 17 16 16 16 15 14 14 14 13 13 13 13 12 12 12 12 12 11 11 11 11 11 11 10 10 10 10 9 9 9 9
18 18 18 19 18 18 18 19 19 19 18 17 16 16 16 15 15 14 14 14 13 13 13 12 12 12 12 12 11 11 11 11 11 11 11 10 10 10 10 9 9 9 9 9
17 17 17 19 18 17 18 18 18 18 18 17 17 18 18 15 14 14 13 13 13 13 12 12 12 12 11 11 11 11 11 11 11 10 10 10 10 10 9 9 9 9 9 9
17 17 18 18 17 17 17 18 17 17 17 16 17 17 15 14 13 13 13 13 13 12 12 12 11 11 11 11 11 10 10 10 10 10 10 10 9 9 9 9 9 8 8 8
16 16 17 17 16 17 18 17 16 16 16 15 15 14 14 13 13 12 12 12 12 12 12 11 11 11 11 10 10 10 10 10 10 10 9 9 9 9 8 8 8 8 8 8
17 17 16 15 16 16 15 16 15 15 14 14 14 13 13 12 12 12 12 12 11 11 11 11 11 10 10 10 10 10 9 9 9 9 9 9 8 8 8 8 8 8 7 7
16 16 15 14 14 14 14 14 14 14 13 13 13 13 12 12 12 11 11 11 11 11 11 10 10 10 10 10 9 9 9 9 9 9 8 8 8 8 7 7 7 7 7 7
15 15 14 14 13 13 13 13 13 13 12 12 12 12 12 11 11 11 11 11 10 10 10 10 10 9 9 9 9 9 9 8 8 8 8 8 8 8 7 7 7 7 7 6
15 15 15 14 13 12 12 12 12 12 12 12 12 11 11 11 11 10 10 10 10 10 9 9 9 9 9 9 9 8 8 8 8 8 7 7 7 7 7 7 7 7 7 6
13 13 13 12 12 12 12 12 12 12 11 11 11 11 11 10 10 10 10 10 9 9 9 9 8 8 8 8 8 8 8 8 8 7 7 7 7 6 6 6 6 6 6 6
11 11 12 11 11 11 11 11 11 11 11 11 11 10 10 10 10 9 9 9 9 8 8 8 8 8 8 8 8 7 7 8 7 7 7 6 6 6 6 6 5 5 5 5
11 11 11 11 11 11 11 11 11 10 10 10 10 10 10 9 9 9 9 8 8 8 7 7 8 8 7 7 7 7 7 7 7 7 6 6 6 5 5 5 5 5 5 5
10 10 10 10 10 10 10 10 10 10 10 10 10 9 9 9 9 8 8 8 7 7 7 7 7 7 7 7 7 7 7 7 7 6 6 5 5 5 5 5 5 4 4 4
9 9 9 10 10 9 9 10 10 10 10 9 9 9 9 8 8 8 8 7 7 7 7 7 7 7 7 7 7 6 6 6 6 6 5 5 5 5 5 4 4 4 4 4
10 10 10 10 9 9 9 9 9 9 9 9 9 8 8 8 8 7 7 7 7 6 6 6 6 7 6 6 6 6 6 5 5 5 5 5 5 4 4 4 4 4 3 3
9 9 9 9 9 9 8 8 8 9 8 8 8 8 8 7 7 7 7 7 6 6 6 6 6 6 6 6 6 5 5 5 5 4 4 4 4 4 4 3 3 3 3 3
9 8 8 8 8 8 8 8 8 8 8 8 7 7 7 7 7 7 7 6 6 6 6 6 6 5 5 5 5 5 5 5 4 4 4 4 3 3 3 3 3 3 3 3
8 8 8 8 8 8 8 7 7 7 7 7 7 7 7 7 7 7 6 6 6 6 5 5 5 5 5 5 5 4 4 4 4 4 3 3 3 3 3 2 2 2 2 2
8 8 7 7 7 7 7 7 7 7 7 7 7 7 6 6 6 6 6 6 6 5 5 5 5 5 5 5 4 4 4 3 3 3 3 3 2 2 2 2 2 2 2 2
7 7 7 7 7 7 7 7 6 6 6 6 6 6 6 6 6 6 6 6 5 5 5 5 5 5 4 4 4 4 3 3 3 2 2 2 2 2 2 1 1 1 1 1
7 7 7 7 6 6 6 6 6 6 6 6 6 6 6 6 6 5 5 5 5 5 5 4 4 4 4 3 3 3 3 3 2 2 2 2 2 1 1 1 1 1 1 1
6 6 6 6 6 6 6 6 6 6 5 5 5 5 5 5 5 5 5 5 5 4 4 4 4 4 3 3 3 3 2 2 2 2 2 1 1 1 1 1 1 1 1 0
6 6 6 6 6 6 6 5 5 5 5 5 5 5 5 5 5 5 4 4 4 4 4 3 3 3 2 2 2 2 2 2 2 1 1 1 1 1 1 1 1 0 0 0
5 5 5 5 5 5 5 5 5 5 5 4 4 4 4 4 4 4 4 4 3 3 3 3 2 2 2 2 2 2 2 1 1 1 1 1 1 1 0 0 0 0 -0 -0
Wind_Speed
9 6 7 9 10 11 13 14 13 13 13 11 8 7 6 4 3 3 3 3 3 3 3 4 4 4 4 4 5 5 5 6 6 6 6 6 7 7 7 6 7 6 7 7
9 8 8 11 12 13 14 14 15 14 14 10 7 5 5 5 4 4 4 4 4 4 4 4 5 5 4 4 4 5 5 5 5 5 5 6 6 6 6 7 7 7 7 7
8 6 7 11 11 12 12 11 12 13 10 6 6 6 5 5 5 5 4 4 4 4 4 4 4 4 5 5 4 5 5 5 4 4 5 5 6 6 6 6 7 7 7 7
6 6 10 5 1 6 10 10 11 10 8 6 6 5 4 4 5 4 4 4 4 4 4 4 4 4 5 5 5 5 5 4 4 4 4 4 5 5 6 5 6 6 7 7
6 9 10 6 3 5 7 8 7 8 6 5 3 3 5 3 3 4 4 4 4 4 4 3 4 4 5 5 5 5 5 4 4 4 4 4 4 5 5 5 5 6 6 7
8 9 8 4 2 3 5 8 3 4 5 5 5 6 3 1 2 3 3 3 3 3 3 4 4 4 5 5 5 5 5 5 4 4 4 4 4 4 4 4 4 4 4 5
12 11 8 2 2 4 7 3 0 3 4 5 6 4 2 1 2 2 2 2 2 2 3 3 3 5 5 6 5 5 4 4 4 4 4 4 3 3 3 3 3 4 4 4
9 10 8 3 5 6 3 2 1 2 3 4 3 2 2 2 2 2 2 2 2 2 2 2 3 5 5 5 4 3 4 4 4 4 3 3 3 3 3 3 3 3 3 3
7 6 2 3 4 3 3 3 3 2 3 3 3 3 3 3 3 3 2 2 2 2 2 2 3 4 5 3 3 4 4 4 4 4 3 3 3 3 3 3 3 2 2 3
7 7 5 5 5 4 4 4 3 3 3 4 4 4 4 3 3 3 2 2 2 2 2 2 3 3 3 3 4 4 4 4 4 3 3 3 2 2 3 3 3 3 2 2
10 8 6 6 6 5 4 4 4 4 4 4 5 5 5 4 4 3 2 2 2 3 3 3 3 3 3 3 4 4 3 3 3 3 3 3 2 1 2 2 2 2 3 2
8 7 6 7 6 5 5 5 5 5 4 4 5 5 5 4 3 3 3 3 3 3 3 3 2 2 2 3 3 3 3 3 3 3 3 3 3 2 2 0 1 0 1 1
9 8 7 7 6 6 6 6 6 6 5 4 4 4 4 4 3 3 3 3 3 3 3 3 2 2 2 3 3 3 3 3 3 3 3 3 3 2 2 2 2 1 0 0
8 7 8 8 8 8 7 6 6 5 4 4 3 4 4 3 3 4 3 3 3 3 3 3 2 2 2 3 3 3 2 2 3 3 3 3 3 2 2 2 1 1 2 1
8 9 8 8 7 7 6 6 5 5 4 3 3 4 4 4 4 4 3 3 3 3 3 3 3 2 2 3 3 3 2 2 2 2 2 2 2 2 2 2 2 1 1 1
7 7 7 7 7 7 7 7 6 5 5 4 4 4 4 4 3 3 3 3 4 4 3 3 3 2 2 3 3 2 2 2 2 2 2 2 2 2 2 2 2 1 1 1
6 7 7 7 7 7 7 7 6 6 5 5 4 4 4 4 4 3 3 3 4 3 3 3 3 2 2 3 3 2 2 3 4 2 2 2 2 2 2 2 2 1 1 0
8 8 8 8 7 7 7 6 6 5 5 5 4 4 5 5 5 4 4 3 3 2 2 2 2 2 2 2 2 2 2 2 2 2 2 2 2 2 2 2 2 2 1 1
6 6 6 5 6 6 6 5 5 5 4 4 4 5 5 4 4 4 4 4 4 3 3 2 2 3 2 2 2 2 2 2 2 2 2 2 2 1 1 1 2 2 2 2
5 4 4 4 4 4 4 4 4 4 4 4 4 4 4 4 4 4 4 4 3 3 3 3 3 3 3 3 3 2 2 2 2 2 2 2 2 1 1 1 1 2 2 2
4 4 3 3 3 3 3 3 4 3 3 4 4 4 4 4 4 4 4 3 3 2 3 4 3 3 3 3 4 2 2 2 2 2 2 2 1 1 1 1 1 2 2 2
3 3 3 3 2 2 2 2 2 3 3 3 3 3 3 3 4 4 4 3 3 3 3 3 3 3 4 4 3 3 2 2 2 2 2 2 1 1 1 1 1 1 2 2
2 2 2 2 2 1 1 1 2 2 3 3 3 3 3 3 3 3 3 3 3 4 3 2 3 5 5 4 3 3 3 2 2 2 2 2 2 1 1 1 1 2 2 2
2 2 2 2 2 2 2 2 2 2 2 2 2 3 3 2 2 2 2 3 4 5 3 4 6 6 5 3 3 2 2 2 2 2 2 2 2 2 2 2 2 2 2 2
3 3 3 3 3 3 3 2 2 2 2 2 2 2 2 2 2 2 2 3 5 5 3 4 6 6 4 3 3 2 2 2 2 2 2 2 2 2 2 2 2 2 2 2
3 3 3 3 3 2 2 2 2 2 2 2 2 1 1 2 2 2 2 3 4 4 3 3 4 5 3 3 3 2 2 2 2 2 2 2 2 2 2 2 3 3 2 3
3 2 2 2 2 2 2 2 2 2 2 3 2 1 2 2 2 3 3 3 3 3 3 3 3 3 3 3 2 2 2 2 2 2 2 2 2 2 2 3 3 3 3 3
Wind_Direction
258 265 253 249 243 231 234 244 255 260 261 269 269 269 268 265 265 258 243 223 215 212 206 199 198 197 198 200 199 195 196 204 212 216 215 218 220 222 224 226 228 229 233 235
251 248 249 256 250 241 240 245 251 259 264 270 271 264 257 255 251 253 250 240 232 228 221 215 207 204 203 206 205 201 201 208 211 215 215 218 220 220 221 225 228 231 235 236
254 250 263 256 245 236 234 235 242 253 261 254 252 248 252 256 253 252 252 253 245 241 234 227 222 212 207 209 207 207 207 209 209 212 214 218 217 217 222 225 227 231 236 238
258 251 250 262 213 233 241 247 247 252 255 252 258 260 264 262 258 260 263 262 258 252 246 236 227 222 212 203 203 208 211 210 213 215 216 217 215 219 226 229 230 235 237 240
241 251 263 256 222 213 234 253 244 242 240 239 250 249 250 254 253 263 266 264 262 255 241 229 224 220 210 204 207 210 214 214 215 217 218 220 221 222 228 232 234 236 238 240
234 247 253 250 178 211 243 253 233 237 236 225 217 243 257 272 279 269 270 271 265 252 233 220 215 211 208 208 211 216 216 215 214 214 215 220 227 228 228 228 232 236 239 241
237 245 256 258 167 188 227 268 124 246 236 221 231 276 322 301 288 278 279 280 266 241 226 218 208 207 211 212 218 219 212 208 209 208 214 217 223 228 227 225 226 231 237 243
229 238 245 156 172 211 271 344 295 265 242 233 257 296 279 270 270 272 275 274 251 228 222 219 212 212 216 218 218 209 203 203 206 208 207 208 209 222 227 222 225 229 236 243
232 245 306 203 230 267 303 295 291 280 260 241 256 267 259 259 259 258 258 259 249 230 223 228 224 224 222 217 204 202 204 206 209 211 209 211 207 208 221 221 225 232 238 244
254 257 264 260 258 266 282 294 294 286 267 251 257 257 252 254 252 250 247 244 241 229 221 227 234 234 230 207 199 200 204 209 212 210 206 201 202 204 212 220 225 227 236 247
255 262 266 262 259 262 276 284 281 279 264 254 256 253 247 248 251 252 240 229 227 227 225 229 229 230 224 203 198 198 200 204 209 209 204 194 181 189 220 212 233 238 233 233
254 262 266 273 274 265 267 268 268 268 268 264 254 251 247 246 245 237 227 215 215 221 222 225 221 220 215 206 200 197 199 202 206 206 195 187 181 165 94 74 88 344 286 263
264 273 273 275 276 270 267 266 267 266 263 262 256 247 242 241 230 216 218 215 216 214 215 213 207 209 210 203 200 200 203 205 203 201 191 187 186 187 177 138 127 124 89 240
253 259 262 264 267 266 263 262 264 260 254 247 242 238 235 230 221 215 216 218 215 207 204 199 199 208 204 196 196 198 200 203 202 195 195 191 191 195 197 196 187 166 132 119
258 257 261 266 263 260 255 251 251 248 241 235 227 221 219 222 222 220 213 204 197 199 204 200 202 207 195 191 190 191 194 196 188 190 191 188 189 196 198 200 197 194 175 139
262 256 255 255 255 254 248 243 244 247 244 236 228 223 217 220 220 209 199 192 195 203 205 206 210 210 192 186 188 190 183 165 190 193 185 180 185 195 198 198 204 206 216 233
252 252 251 252 253 248 245 245 245 245 244 235 226 220 211 206 206 207 199 191 200 206 206 213 217 206 192 193 192 191 179 171 179 194 193 187 192 198 200 200 204 214 224 159
253 254 251 251 251 249 246 244 242 239 234 226 215 206 208 209 209 208 202 191 196 201 209 213 204 183 179 183 186 188 187 186 184 188 190 187 196 206 202 201 205 213 222 178
252 251 251 255 254 248 243 240 239 234 224 211 206 210 212 213 212 208 197 195 203 211 213 198 174 172 172 167 161 179 183 180 176 173 176 162 183 202 213 215 218 227 230 226
248 247 251 252 245 239 237 233 228 225 218 205 205 206 208 211 212 207 201 206 214 218 205 183 182 180 173 165 163 174 171 171 169 165 170 185 197 207 218 226 233 237 241 240
246 248 248 245 239 236 234 226 217 216 210 200 202 205 210 213 208 202 200 214 214 194 192 176 180 177 168 157 165 167 164 168 173 176 183 192 202 214 229 236 239 248 255 256
249 243 242 239 233 236 239 226 213 206 201 198 199 198 203 209 207 206 209 217 199 166 181 192 187 161 153 152 164 164 166 170 175 176 184 193 201 214 227 248 255 262 265 267
255 241 234 229 226 232 237 229 219 209 206 207 205 205 212 217 211 210 214 203 188 174 184 194 166 152 157 169 170 169 172 176 181 188 196 203 211 220 228 241 255 262 266 268
262 247 239 232 212 214 229 234 230 215 208 210 208 203 203 208 214 215 215 174 172 173 189 166 162 164 169 181 180 181 184 185 194 208 213 216 218 226 234 242 253 260 264 268
257 251 237 223 218 223 226 219 210 202 195 192 195 199 206 208 208 203 192 184 170 172 182 174 171 172 181 183 188 197 199 197 206 219 221 221 224 234 242 250 256 258 261 264
253 250 244 237 235 227 215 212 217 213 200 195 196 193 189 180 173 173 169 170 171 171 179 180 177 180 191 189 192 198 201 201 211 222 226 227 231 236 243 250 258 257 257 259
247 246 241 238 234 222 212 216 218 218 212 201 195 188 173 162 155 157 158 155 156 162 167 171 174 179 183 190 195 199 205 210 213 213 218 226 234 242 245 249 255 259 259 255
Height
1486 1488 1489 1489 1490 1491 1491 1489 1489 1485 1485 1483 1485 1487 1490 1491 1492 1493 1493 1493 1493 1494 1494 1495 1496 1497 1498 1499 1500 1501 1502 1503 1504 1506 1506 1507 1508 1508 1509 1509 1510 1510 1510 1511
1489 1488 1488 1488 1486 1486 1487 1486 1485 1484 1484 1482 1484 1486 1488 1489 1490 1490 1491 1491 1491 1491 1492 1492 1493 1494 1495 1496 1497 1498 1499 1500 1501 1502 1502 1503 1504 1504 1505 1505 1505 1506 1506 1506
1487 1487 1488 1486 1480 1480 1481 1480 1481 1481 1480 1481 1482 1484 1485 1486 1487 1488 1488 1488 1489 1489 1489 1489 1490 1491 1492 1493 1494 1495 1496 1497 1498 1499 1499 1499 1500 1500 1501 1501 1501 1502 1502 1502
1486 1489 1492 1476 1474 1476 1477 1476 1476 1477 1478 1480 1481 1483 1484 1485 1485 1485 1486 1486 1486 1486 1486 1487 1487 1488 1489 1490 1491 1492 1493 1494 1494 1495 1496 1496 1496 1496 1497 1497 1497 1497 1497 1498
1486 1486 1480 1474 1475 1476 1477 1475 1474 1474 1476 1479 1481 1482 1482 1482 1482 1483 1483 1483 1483 1483 1484 1484 1484 1485 1486 1487 1488 1488 1489 1490 1491 1491 1492 1492 1492 1492 1493 1493 1493 1493 1493 1493
1484 1487 1482 1472 1472 1475 1476 1474 1472 1474 1475 1477 1479 1477 1477 1479 1480 1480 1480 1480 1480 1480 1480 1481 1481 1482 1483 1483 1484 1485 1485 1486 1487 1488 1488 1488 1489 1489 1489 1489 1489 1489 1489 1489
1480 1480 1472 1470 1473 1475 1478 1471 1472 1473 1473 1475 1475 1475 1477 1477 1478 1478 1478 1478 1477 1478 1478 1478 1478 1479 1479 1480 1481 1481 1482 1483 1484 1485 1485 1485 1485 1485 1485 1485 1485 1485 1485 1485
1478 1478 1474 1471 1472 1472 1470 1470 1471 1472 1473 1474 1474 1475 1475 1475 1476 1476 1476 1475 1475 1475 1475 1475 1476 1476 1476 1476 1477 1478 1479 1479 1480 1481 1482 1482 1482 1482 1482 1482 1482 1481 1481 1481
1470 1470 1468 1470 1470 1470 1471 1471 1471 1472 1472 1473 1473 1473 1473 1473 1473 1473 1473 1473 1473 1472 1472 1473 1473 1473 1473 1473 1474 1474 1475 1476 1477 1478 1478 1478 1478 1478 1478 1478 1478 1478 1478 1478
1469 1466 1468 1469 1469 1469 1470 1470 1471 1471 1471 1471 1471 1471 1471 1471 1471 1471 1470 1470 1470 1470 1470 1470 1470 1470 1470 1470 1471 1471 1472 1473 1474 1474 1475 1475 1475 1475 1475 1475 1475 1475 1475 1474
1467 1466 1467 1466 1467 1468 1468 1468 1468 1468 1469 1469 1468 1468 1468 1468 1468 1468 1467 1467 1467 1467 1467 1467 1467 1468 1468 1468 1468 1469 1469 1470 1470 1471 1471 1472 1472 1472 1472 1472 1472 1472 1471 1471
1463 1463 1464 1464 1465 1465 1466 1465 1466 1465 1465 1465 1466 1465 1465 1465 1465 1465 1465 1464 1464 1465 1465 1465 1465 1465 1465 1465 1466 1466 1466 1467 1467 1468 1468 1468 1469 1469 1469 1469 1469 1469 1469 1469
1462 1462 1462 1462 1462 1463 1463 1463 1463 1463 1462 1462 1462 1462 1462 1462 1462 1462 1462 1462 1462 1462 1462 1462 1462 1462 1462 1463 1463 1463 1464 1464 1464 1465 1465 1465 1466 1466 1466 1466 1466 1466 1466 1466
1459 1460 1459 1459 1459 1459 1459 1459 1459 1459 1459 1459 1459 1459 1459 1459 1459 1459 1459 1459 1459 1459 1459 1459 1459 1459 1459 1460 1460 1461 1461 1461 1461 1462 1462 1463 1463 1464 1464 1464 1464 1464 1464 1464
1455 1456 1456 1455 1455 1455 1455 1456 1456 1456 1456 1455 1455 1456 1456 1456 1456 1456 1456 1456 1456 1456 1457 1456 1456 1457 1457 1457 1458 1458 1458 1459 1459 1459 1460 1460 1461 1461 1462 1462 1462 1462 1461 1461
1451 1451 1451 1451 1451 1451 1451 1452 1452 1452 1452 1452 1452 1452 1453 1453 1453 1453 1453 1453 1453 1454 1454 1454 1454 1454 1454 1455 1455 1455 1456 1456 1457 1457 1457 1458 1458 1459 1459 1459 1459 1460 1460 1460
1447 1447 1447 1447 1447 1447 1448 1448 1449 1449 1449 1449 1449 1449 1449 1450 1450 1450 1450 1450 1451 1451 1451 1452 1452 1452 1452 1452 1452 1453 1453 1454 1454 1455 1455 1455 1455 1456 1456 1457 1457 1457 1457 1458
1444 1444 1444 1444 1443 1443 1444 1444 1445 1445 1445 1445 1446 1446 1446 1446 1447 1447 1448 1448 1449 1449 1449 1449 1449 1449 1449 1449 1450 1450 1451 1452 1452 1453 1453 1453 1453 1454 1454 1454 1455 1455 1455 1456
1440 1440 1440 1440 1440 1440 1441 1441 1441 1441 1442 1442 1442 1443 1443 1444 1444 1445 1445 1446 1446 1446 1447 1447 1447 1447 1447 1448 1448 1449 1449 1450 1450 1450 1451 1451 1451 1452 1452 1452 1452 1453 1453 1453
1436 1437 1437 1437 1437 1437 1437 1437 1438 1438 1439 1439 1440 1440 1441 1441 1442 1442 1443 1443 1443 1444 1444 1444 1445 1445 1446 1446 1447 1447 1448 1448 1448 1449 1449 1449 1450 1450 1450 1450 1450 1451 1451 1451
1433 1433 1434 1434 1434 1434 1434 1435 1435 1435 1436 1436 1437 1437 1438 1439 1439 1440 1440 1440 1441 1442 1442 1442 1443 1444 1444 1445 1445 1446 1446 1446 1447 1447 1448 1448 1448 1448 1448 1448 1448 1448 1448 1448
1431 1431 1431 1431 1431 1431 1432 1432 1432 1433 1433 1434 1434 1435 1435 1436 1436 1437 1437 1438 1439 1439 1440 1440 1441 1442 1442 1443 1443 1444 1444 1445 1445 1445 1446 1446 1446 1446 1446 1446 1446 1446 1446 1446
1429 1429 1429 1429 1429 1429 1429 1429 1430 1430 1430 1431 1431 1432 1433 1433 1434 1435 1435 1436 1436 1437 1438 1438 1439 1440 1440 1441 1441 1442 1442 1443 1443 1443 1444 1444 1445 1445 1445 1445 1445 1445 1444 1444
1427 1427 1427 1427 1427 1427 1427 1427 1428 1428 1428 1429 1429 1430 1430 1431 1431 1432 1433 1433 1434 1434 1435 1436 1437 1437 1438 1439 1439 1440 1440 1441 1441 1442 1442 1442 1442 1442 1443 1442 1442 1442 1442 1441
1425 1425 1425 1425 1425 1425 1425 1425 1425 1426 1426 1426 1427 1427 1428 1428 1429 1429 1430 1431 1431 1432 1433 1433 1434 1435 1436 1436 1437 1438 1438 1439 1439 1439 1439 1440 1440 1440 1440 1440 1439 1439 1439 1439
1423 1423 1423 1423 1423 1423 1423 1423 1423 1423 1423 1424 1424 1425 1425 1425 1426 1426 1427 1428 1429 1429 1430 1431 1431 1432 1433 1434 1435 1435 1435 1436 1436 1436 1437 1437 1437 1437 1437 1437 1436 1436 1436 1436
1420 1420 1420 1420 1420 1420 1420 1420 1420 1420 1421 1421 1421 1422 1422 1423 1423 1424 1425 1425 1426 1426 1427 1428 1429 1430 1430 1431 1432 1432 1433 1433 1433 1433 1433 1433 1433 1433 1433 1433 1433 1433 1432 1432